Year,Month,Day,Hour,Minute,Value (Times are PST for temperature in C)
2017,07,14,00,00,13.40
2017,07,14,00,01,13.30
2017,07,14,00,03,13.30
2017,07,14,00,04,13.30
2017,07,14,00,06,13.30
2017,07,14,00,07,13.30
2017,07,14,00,09,13.30
2017,07,14,00,10,13.30
2017,07,14,00,12,13.30
2017,07,14,00,13,13.30
2017,07,14,00,14,13.30
2017,07,14,00,16,13.30
2017,07,14,00,17,13.30
2017,07,14,00,18,13.30
2017,07,14,00,19,13.30
2017,07,14,00,21,13.30
2017,07,14,00,22,13.20
2017,07,14,00,23,13.20
2017,07,14,00,24,13.20
2017,07,14,00,26,13.20
2017,07,14,00,27,13.20
2017,07,14,00,28,13.20
2017,07,14,00,29,13.20
2017,07,14,00,31,13.20
2017,07,14,00,32,13.10
2017,07,14,00,33,13.10
2017,07,14,00,34,13.10
2017,07,14,00,36,13.10
2017,07,14,00,37,13.10
2017,07,14,00,38,13.10
2017,07,14,00,39,13.10
2017,07,14,00,41,13.00
2017,07,14,00,42,13.00
2017,07,14,00,43,13.00
2017,07,14,00,44,13.00
2017,07,14,00,46,13.00
2017,07,14,00,47,13.00
2017,07,14,00,48,13.00
2017,07,14,00,49,13.00
2017,07,14,00,51,12.90
2017,07,14,00,52,12.90
2017,07,14,00,53,12.90
2017,07,14,00,54,12.90
2017,07,14,00,56,12.90
2017,07,14,00,57,12.90
2017,07,14,00,58,12.90
2017,07,14,00,59,12.90
2017,07,14,01,01,12.80
2017,07,14,01,02,12.80
2017,07,14,01,03,12.80
2017,07,14,01,04,12.80
2017,07,14,01,06,12.80
2017,07,14,01,07,12.80
2017,07,14,01,08,12.80
2017,07,14,01,09,12.80
2017,07,14,01,11,12.70
2017,07,14,01,12,12.70
2017,07,14,01,13,12.70
2017,07,14,01,14,12.70
2017,07,14,01,16,12.70
2017,07,14,01,17,12.70
2017,07,14,01,18,12.60
2017,07,14,01,19,12.60
2017,07,14,01,21,12.60
2017,07,14,01,22,12.60
2017,07,14,01,23,12.60
2017,07,14,01,24,12.60
2017,07,14,01,26,12.50
2017,07,14,01,27,12.50
2017,07,14,01,28,12.50
2017,07,14,01,29,12.50
2017,07,14,01,31,12.50
2017,07,14,01,32,12.50
2017,07,14,01,33,12.40
2017,07,14,01,34,12.40
2017,07,14,01,36,12.40
2017,07,14,01,37,12.40
2017,07,14,01,38,12.40
2017,07,14,01,39,12.40
2017,07,14,01,40,12.40
2017,07,14,01,41,12.40
2017,07,14,01,42,12.40
2017,07,14,01,43,12.40
2017,07,14,01,44,12.30
2017,07,14,01,45,12.30
2017,07,14,01,46,12.30
2017,07,14,01,47,12.30
2017,07,14,01,48,12.30
2017,07,14,01,49,12.30
2017,07,14,01,50,12.30
2017,07,14,01,51,12.30
2017,07,14,01,52,12.30
2017,07,14,01,53,12.30
2017,07,14,01,54,12.30
2017,07,14,01,55,12.30
2017,07,14,01,56,12.30
2017,07,14,01,57,12.30
2017,07,14,01,58,12.30
2017,07,14,01,59,12.30
2017,07,14,02,00,12.30
2017,07,14,02,01,12.30
2017,07,14,02,02,12.30
2017,07,14,02,03,12.20
2017,07,14,02,04,12.20
2017,07,14,02,05,12.20
2017,07,14,02,06,12.20
2017,07,14,02,07,12.20
2017,07,14,02,08,12.20
2017,07,14,02,09,12.20
2017,07,14,02,10,12.10
2017,07,14,02,11,12.10
2017,07,14,02,12,12.10
2017,07,14,02,13,12.10
2017,07,14,02,14,12.10
2017,07,14,02,15,12.10
2017,07,14,02,16,12.10
2017,07,14,02,17,12.00
2017,07,14,02,18,12.00
2017,07,14,02,19,12.00
2017,07,14,02,20,12.00
2017,07,14,02,21,12.00
2017,07,14,02,22,12.00
2017,07,14,02,23,12.00
2017,07,14,02,24,12.00
2017,07,14,02,25,12.00
2017,07,14,02,26,12.00
2017,07,14,02,27,12.00
2017,07,14,02,28,12.00
2017,07,14,02,29,12.00
2017,07,14,02,30,12.00
2017,07,14,02,31,12.00
2017,07,14,02,32,12.00
2017,07,14,02,33,12.00
2017,07,14,02,34,12.00
2017,07,14,02,35,12.00
2017,07,14,02,36,12.00
2017,07,14,02,37,12.00
2017,07,14,02,38,12.00
2017,07,14,02,39,12.00
2017,07,14,02,40,12.00
2017,07,14,02,41,12.00
2017,07,14,02,42,12.00
2017,07,14,02,43,12.00
2017,07,14,02,44,12.00
2017,07,14,02,45,12.00
2017,07,14,02,46,12.00
2017,07,14,02,47,12.00
2017,07,14,02,49,12.00
2017,07,14,02,51,12.00
2017,07,14,02,52,12.00
2017,07,14,02,53,12.00
2017,07,14,02,54,12.00
2017,07,14,02,56,11.90
2017,07,14,02,57,11.90
2017,07,14,02,58,11.90
2017,07,14,02,59,11.90
2017,07,14,03,01,11.80
2017,07,14,03,02,11.80
2017,07,14,03,03,11.80
2017,07,14,03,04,11.80
2017,07,14,03,06,11.80
2017,07,14,03,07,11.80
2017,07,14,03,08,11.80
2017,07,14,03,09,11.80
2017,07,14,03,11,11.80
2017,07,14,03,12,11.80
2017,07,14,03,13,11.80
2017,07,14,03,14,11.80
2017,07,14,03,16,11.80
2017,07,14,03,17,11.80
2017,07,14,03,18,11.80
2017,07,14,03,19,11.80
2017,07,14,03,21,11.80
2017,07,14,03,22,11.70
2017,07,14,03,23,11.70
2017,07,14,03,24,11.70
2017,07,14,03,26,11.70
2017,07,14,03,27,11.70
2017,07,14,03,28,11.70
2017,07,14,03,29,11.70
2017,07,14,03,31,11.70
2017,07,14,03,32,11.70
2017,07,14,03,33,11.70
2017,07,14,03,34,11.60
2017,07,14,03,36,11.60
2017,07,14,03,37,11.60
2017,07,14,03,38,11.60
2017,07,14,03,39,11.60
2017,07,14,03,41,11.60
2017,07,14,03,42,11.60
2017,07,14,03,43,11.60
2017,07,14,03,44,11.60
2017,07,14,03,46,11.60
2017,07,14,03,47,11.60
2017,07,14,03,48,11.60
2017,07,14,03,49,11.60
2017,07,14,03,51,11.60
2017,07,14,03,52,11.60
2017,07,14,03,53,11.60
2017,07,14,03,54,11.60
2017,07,14,03,56,11.60
2017,07,14,03,57,11.60
2017,07,14,03,58,11.60
2017,07,14,03,59,11.60
2017,07,14,04,01,11.40
2017,07,14,04,02,11.40
2017,07,14,04,03,11.40
2017,07,14,04,04,11.40
2017,07,14,04,06,11.40
2017,07,14,04,07,11.40
2017,07,14,04,08,11.40
2017,07,14,04,09,11.40
2017,07,14,04,11,11.40
2017,07,14,04,12,11.40
2017,07,14,04,13,11.40
2017,07,14,04,14,11.40
2017,07,14,04,15,11.40
2017,07,14,04,16,11.40
2017,07,14,04,17,11.40
2017,07,14,04,18,11.40
2017,07,14,04,19,11.40
2017,07,14,04,21,11.40
2017,07,14,04,22,11.40
2017,07,14,04,23,11.40
2017,07,14,04,24,11.40
2017,07,14,04,25,11.40
2017,07,14,04,26,11.40
2017,07,14,04,27,11.40
2017,07,14,04,28,11.40
2017,07,14,04,29,11.40
2017,07,14,04,30,11.40
2017,07,14,04,31,11.40
2017,07,14,04,32,11.40
2017,07,14,04,33,11.40
2017,07,14,04,34,11.40
2017,07,14,04,35,11.40
2017,07,14,04,36,11.40
2017,07,14,04,37,11.30
2017,07,14,04,38,11.30
2017,07,14,04,39,11.30
2017,07,14,04,40,11.30
2017,07,14,04,41,11.30
2017,07,14,04,42,11.30
2017,07,14,04,43,11.30
2017,07,14,04,44,11.20
2017,07,14,04,45,11.20
2017,07,14,04,46,11.20
2017,07,14,04,47,11.20
2017,07,14,04,48,11.20
2017,07,14,04,49,11.20
2017,07,14,04,50,11.20
2017,07,14,04,51,11.10
2017,07,14,04,52,11.10
2017,07,14,04,53,11.10
2017,07,14,04,54,11.10
2017,07,14,04,55,11.10
2017,07,14,04,56,11.10
2017,07,14,04,57,11.10
2017,07,14,04,58,11.10
2017,07,14,04,59,11.10
2017,07,14,05,00,11.10
2017,07,14,05,01,11.10
2017,07,14,05,02,11.10
2017,07,14,05,03,10.90
2017,07,14,05,04,10.90
2017,07,14,05,05,10.90
2017,07,14,05,06,10.90
2017,07,14,05,07,10.90
2017,07,14,05,08,10.90
2017,07,14,05,09,10.90
2017,07,14,05,10,10.90
2017,07,14,05,11,10.90
2017,07,14,05,12,10.90
2017,07,14,05,13,10.90
2017,07,14,05,14,10.90
2017,07,14,05,15,10.80
2017,07,14,05,16,10.80
2017,07,14,05,17,10.80
2017,07,14,05,18,10.80
2017,07,14,05,19,10.80
2017,07,14,05,20,10.80
2017,07,14,05,21,10.80
2017,07,14,05,22,10.70
2017,07,14,05,23,10.70
2017,07,14,05,24,10.70
2017,07,14,05,25,10.70
2017,07,14,05,27,10.70
2017,07,14,05,29,10.70
2017,07,14,05,31,10.70
2017,07,14,05,32,10.70
2017,07,14,05,33,10.60
2017,07,14,05,34,10.60
2017,07,14,05,36,10.60
2017,07,14,05,37,10.60
2017,07,14,05,38,10.60
2017,07,14,05,39,10.60
2017,07,14,05,41,10.60
2017,07,14,05,42,10.60
2017,07,14,05,43,10.60
2017,07,14,05,44,10.60
2017,07,14,05,46,10.60
2017,07,14,05,47,10.60
2017,07,14,05,48,10.60
2017,07,14,05,49,10.60
2017,07,14,05,51,10.60
2017,07,14,05,52,10.60
2017,07,14,05,53,10.60
2017,07,14,05,54,10.60
2017,07,14,05,56,10.60
2017,07,14,05,57,10.60
2017,07,14,05,58,10.60
2017,07,14,05,59,10.60
2017,07,14,06,01,10.60
2017,07,14,06,02,10.60
2017,07,14,06,03,10.60
2017,07,14,06,04,10.60
2017,07,14,06,06,10.60
2017,07,14,06,07,10.60
2017,07,14,06,08,10.70
2017,07,14,06,09,10.70
2017,07,14,06,11,10.70
2017,07,14,06,12,10.70
2017,07,14,06,13,10.70
2017,07,14,06,14,10.70
2017,07,14,06,16,10.70
2017,07,14,06,17,10.70
2017,07,14,06,18,10.80
2017,07,14,06,19,10.80
2017,07,14,06,21,10.80
2017,07,14,06,22,10.90
2017,07,14,06,23,10.90
2017,07,14,06,24,10.90
2017,07,14,06,26,10.90
2017,07,14,06,27,11.10
2017,07,14,06,28,11.10
2017,07,14,06,29,11.10
2017,07,14,06,31,11.10
2017,07,14,06,32,11.10
2017,07,14,06,33,11.10
2017,07,14,06,34,11.20
2017,07,14,06,36,11.20
2017,07,14,06,37,11.30
2017,07,14,06,38,11.30
2017,07,14,06,39,11.30
2017,07,14,06,41,11.40
2017,07,14,06,42,11.40
2017,07,14,06,43,11.40
2017,07,14,06,44,11.40
2017,07,14,06,46,11.40
2017,07,14,06,47,11.60
2017,07,14,06,48,11.60
2017,07,14,06,49,11.60
2017,07,14,06,51,11.60
2017,07,14,06,52,11.60
2017,07,14,06,53,11.60
2017,07,14,06,54,11.60
2017,07,14,06,55,11.70
2017,07,14,06,56,11.70
2017,07,14,06,57,11.80
2017,07,14,06,58,11.80
2017,07,14,06,59,11.80
2017,07,14,07,00,11.80
2017,07,14,07,01,11.90
2017,07,14,07,02,11.90
2017,07,14,07,03,12.00
2017,07,14,07,04,12.00
2017,07,14,07,06,12.10
2017,07,14,07,07,12.10
2017,07,14,07,08,12.10
2017,07,14,07,09,12.20
2017,07,14,07,10,12.20
2017,07,14,07,11,12.20
2017,07,14,07,12,12.20
2017,07,14,07,13,12.20
2017,07,14,07,14,12.20
2017,07,14,07,15,12.30
2017,07,14,07,16,12.30
2017,07,14,07,17,12.30
2017,07,14,07,18,12.30
2017,07,14,07,19,12.30
2017,07,14,07,20,12.30
2017,07,14,07,21,12.30
2017,07,14,07,22,12.30
2017,07,14,07,23,12.30
2017,07,14,07,24,12.30
2017,07,14,07,25,12.30
2017,07,14,07,26,12.40
2017,07,14,07,27,12.40
2017,07,14,07,28,12.40
2017,07,14,07,29,12.50
2017,07,14,07,30,12.50
2017,07,14,07,31,12.50
2017,07,14,07,32,12.50
2017,07,14,07,33,12.60
2017,07,14,07,34,12.60
2017,07,14,07,35,12.60
2017,07,14,07,36,12.60
2017,07,14,07,37,12.60
2017,07,14,07,38,12.60
2017,07,14,07,39,12.70
2017,07,14,07,40,12.70
2017,07,14,07,41,12.70
2017,07,14,07,42,12.80
2017,07,14,07,43,12.80
2017,07,14,07,44,12.80
2017,07,14,07,45,12.80
2017,07,14,07,46,12.80
2017,07,14,07,47,12.90
2017,07,14,07,48,12.90
2017,07,14,07,49,13.00
2017,07,14,07,50,13.00
2017,07,14,07,51,13.00
2017,07,14,07,52,13.10
2017,07,14,07,53,13.10
2017,07,14,07,54,13.10
2017,07,14,07,55,13.10
2017,07,14,07,56,13.20
2017,07,14,07,57,13.20
2017,07,14,07,58,13.20
2017,07,14,07,59,13.20
2017,07,14,08,00,13.30
2017,07,14,08,01,13.30
2017,07,14,08,02,13.30
2017,07,14,08,03,13.30
2017,07,14,08,04,13.30
2017,07,14,08,05,13.30
2017,07,14,08,06,13.40
2017,07,14,08,07,13.40
2017,07,14,08,08,13.40
2017,07,14,08,09,13.50
2017,07,14,08,10,13.50
2017,07,14,08,11,13.60
2017,07,14,08,13,13.60
2017,07,14,08,14,13.70
2017,07,14,08,16,13.70
2017,07,14,08,17,13.70
2017,07,14,08,18,13.70
2017,07,14,08,19,13.80
2017,07,14,08,21,13.80
2017,07,14,08,22,13.90
2017,07,14,08,23,13.90
2017,07,14,08,24,13.90
2017,07,14,08,26,14.00
2017,07,14,08,27,14.00
2017,07,14,08,28,14.10
2017,07,14,08,29,14.10
2017,07,14,08,31,14.20
2017,07,14,08,32,14.20
2017,07,14,08,33,14.20
2017,07,14,08,34,14.30
2017,07,14,08,36,14.50
2017,07,14,08,37,14.70
2017,07,14,08,38,14.80
2017,07,14,08,39,14.90
2017,07,14,08,41,15.10
2017,07,14,08,42,15.20
2017,07,14,08,43,15.30
2017,07,14,08,44,15.30
2017,07,14,08,46,15.40
2017,07,14,08,47,15.50
2017,07,14,08,48,15.50
2017,07,14,08,49,15.60
2017,07,14,08,51,15.70
2017,07,14,08,52,15.70
2017,07,14,08,53,15.80
2017,07,14,08,54,15.80
2017,07,14,08,56,15.80
2017,07,14,08,57,15.90
2017,07,14,08,58,15.90
2017,07,14,08,59,16.10
2017,07,14,09,01,16.10
2017,07,14,09,02,16.10
2017,07,14,09,03,16.20
2017,07,14,09,04,16.20
2017,07,14,09,06,16.20
2017,07,14,09,07,16.30
2017,07,14,09,08,16.30
2017,07,14,09,09,16.30
2017,07,14,09,11,16.40
2017,07,14,09,12,16.40
2017,07,14,09,13,16.40
2017,07,14,09,14,16.40
2017,07,14,09,16,16.40
2017,07,14,09,17,16.40
2017,07,14,09,18,16.60
2017,07,14,09,19,16.60
2017,07,14,09,21,16.70
2017,07,14,09,22,16.70
2017,07,14,09,23,16.70
2017,07,14,09,24,16.70
2017,07,14,09,26,16.90
2017,07,14,09,27,17.00
2017,07,14,09,28,17.00
2017,07,14,09,29,17.10
2017,07,14,09,31,17.20
2017,07,14,09,32,17.20
2017,07,14,09,33,17.30
2017,07,14,09,34,17.30
2017,07,14,09,36,17.30
2017,07,14,09,37,17.30
2017,07,14,09,38,17.30
2017,07,14,09,39,17.40
2017,07,14,09,41,17.50
2017,07,14,09,42,17.60
2017,07,14,09,43,17.60
2017,07,14,09,44,17.70
2017,07,14,09,45,17.80
2017,07,14,09,46,17.80
2017,07,14,09,47,17.90
2017,07,14,09,48,17.90
2017,07,14,09,49,17.90
2017,07,14,09,50,17.90
2017,07,14,09,51,17.90
2017,07,14,09,52,17.90
2017,07,14,09,53,17.90
2017,07,14,09,54,17.90
2017,07,14,09,55,17.90
2017,07,14,09,56,17.90
2017,07,14,09,57,17.90
2017,07,14,09,58,17.90
2017,07,14,09,59,17.90
2017,07,14,10,00,17.90
2017,07,14,10,01,17.90
2017,07,14,10,02,18.10
2017,07,14,10,03,18.20
2017,07,14,10,04,18.20
2017,07,14,10,05,18.20
2017,07,14,10,06,18.30
2017,07,14,10,07,18.30
2017,07,14,10,08,18.40
2017,07,14,10,09,18.40
2017,07,14,10,10,18.40
2017,07,14,10,11,18.40
2017,07,14,10,12,18.50
2017,07,14,10,13,18.50
2017,07,14,10,14,18.60
2017,07,14,10,15,18.60
2017,07,14,10,16,18.60
2017,07,14,10,17,18.70
2017,07,14,10,18,18.70
2017,07,14,10,19,18.70
2017,07,14,10,20,18.80
2017,07,14,10,21,18.80
2017,07,14,10,22,18.80
2017,07,14,10,23,18.80
2017,07,14,10,24,18.90
2017,07,14,10,25,18.90
2017,07,14,10,26,18.90
2017,07,14,10,27,19.10
2017,07,14,10,28,19.10
2017,07,14,10,29,19.10
2017,07,14,10,30,19.10
2017,07,14,10,31,19.20
2017,07,14,10,32,19.20
2017,07,14,10,33,19.30
2017,07,14,10,34,19.40
2017,07,14,10,35,19.50
2017,07,14,10,36,19.60
2017,07,14,10,37,19.70
2017,07,14,10,38,19.80
2017,07,14,10,39,19.80
2017,07,14,10,40,19.90
2017,07,14,10,41,19.90
2017,07,14,10,42,19.90
2017,07,14,10,43,19.90
2017,07,14,10,44,19.80
2017,07,14,10,45,19.70
2017,07,14,10,46,19.60
2017,07,14,10,47,19.50
2017,07,14,10,48,19.50
2017,07,14,10,49,19.40
2017,07,14,10,50,19.20
2017,07,14,10,51,19.10
2017,07,14,10,52,19.10
2017,07,14,10,53,18.90
2017,07,14,10,54,18.90
2017,07,14,10,55,18.90
2017,07,14,10,56,18.90
2017,07,14,10,58,18.90
2017,07,14,10,59,18.90
2017,07,14,11,00,18.90
2017,07,14,11,02,18.70
2017,07,14,11,03,18.70
2017,07,14,11,04,18.70
2017,07,14,11,06,18.70
2017,07,14,11,07,18.80
2017,07,14,11,08,18.80
2017,07,14,11,09,18.80
2017,07,14,11,11,18.80
2017,07,14,11,12,18.90
2017,07,14,11,13,18.90
2017,07,14,11,14,18.90
2017,07,14,11,16,18.90
2017,07,14,11,17,18.90
2017,07,14,11,18,18.90
2017,07,14,11,19,18.90
2017,07,14,11,21,19.10
2017,07,14,11,22,19.10
2017,07,14,11,23,18.90
2017,07,14,11,24,18.90
2017,07,14,11,26,18.70
2017,07,14,11,27,18.60
2017,07,14,11,28,18.50
2017,07,14,11,29,18.30
2017,07,14,11,31,18.20
2017,07,14,11,32,18.20
2017,07,14,11,33,18.20
2017,07,14,11,34,18.20
2017,07,14,11,36,18.20
2017,07,14,11,37,18.10
2017,07,14,11,38,18.10
2017,07,14,11,39,18.10
2017,07,14,11,41,18.20
2017,07,14,11,42,18.20
2017,07,14,11,43,18.30
2017,07,14,11,44,18.40
2017,07,14,11,46,18.60
2017,07,14,11,47,18.70
2017,07,14,11,48,18.80
2017,07,14,11,49,18.90
2017,07,14,11,51,19.10
2017,07,14,11,52,19.30
2017,07,14,11,53,19.40
2017,07,14,11,54,19.50
2017,07,14,11,56,19.70
2017,07,14,11,57,19.80
2017,07,14,11,58,19.90
2017,07,14,11,59,19.90
2017,07,14,12,01,19.90
2017,07,14,12,02,19.90
2017,07,14,12,03,19.90
2017,07,14,12,04,20.10
2017,07,14,12,06,20.20
2017,07,14,12,07,20.20
2017,07,14,12,08,20.20
2017,07,14,12,09,20.20
2017,07,14,12,10,20.20
2017,07,14,12,11,20.20
2017,07,14,12,12,20.20
2017,07,14,12,13,20.20
2017,07,14,12,14,20.20
2017,07,14,12,15,20.20
2017,07,14,12,16,20.20
2017,07,14,12,17,20.20
2017,07,14,12,18,20.20
2017,07,14,12,19,20.20
2017,07,14,12,20,20.10
2017,07,14,12,21,20.20
2017,07,14,12,22,20.10
2017,07,14,12,23,20.20
2017,07,14,12,24,20.20
2017,07,14,12,25,20.20
2017,07,14,12,26,20.20
2017,07,14,12,27,20.20
2017,07,14,12,28,20.20
2017,07,14,12,29,20.20
2017,07,14,12,30,20.20
2017,07,14,12,31,20.20
2017,07,14,12,32,20.10
2017,07,14,12,33,20.10
2017,07,14,12,34,20.10
2017,07,14,12,35,20.10
2017,07,14,12,36,20.10
2017,07,14,12,37,19.90
2017,07,14,12,38,19.90
2017,07,14,12,39,19.80
2017,07,14,12,40,19.80
2017,07,14,12,41,19.80
2017,07,14,12,42,19.90
2017,07,14,12,43,19.90
2017,07,14,12,44,19.90
2017,07,14,12,45,20.10
2017,07,14,12,46,20.20
2017,07,14,12,47,20.20
2017,07,14,12,48,20.20
2017,07,14,12,49,20.20
2017,07,14,12,50,20.20
2017,07,14,12,52,20.30
2017,07,14,12,53,20.30
2017,07,14,12,54,20.40
2017,07,14,12,56,20.40
2017,07,14,12,57,20.30
2017,07,14,12,58,20.30
2017,07,14,12,59,20.20
2017,07,14,13,00,20.20
2017,07,14,13,02,20.20
2017,07,14,13,03,20.20
2017,07,14,13,04,20.10
2017,07,14,13,06,20.10
2017,07,14,13,07,19.90
2017,07,14,13,08,19.90
2017,07,14,13,09,19.90
2017,07,14,13,11,19.90
2017,07,14,13,12,19.90
2017,07,14,13,13,19.90
2017,07,14,13,14,19.90
2017,07,14,13,16,19.90
2017,07,14,13,17,20.10
2017,07,14,13,18,20.10
2017,07,14,13,19,20.10
2017,07,14,13,21,20.20
2017,07,14,13,22,20.20
2017,07,14,13,23,20.20
2017,07,14,13,24,20.30
2017,07,14,13,26,20.40
2017,07,14,13,27,20.50
2017,07,14,13,28,20.60
2017,07,14,13,29,20.80
2017,07,14,13,31,20.90
2017,07,14,13,32,20.90
2017,07,14,13,33,20.90
2017,07,14,13,34,20.90
2017,07,14,13,36,20.90
2017,07,14,13,37,20.80
2017,07,14,13,38,20.80
2017,07,14,13,39,20.80
2017,07,14,13,41,20.60
2017,07,14,13,42,20.50
2017,07,14,13,43,20.50
2017,07,14,13,44,20.40
2017,07,14,13,46,20.20
2017,07,14,13,47,20.20
2017,07,14,13,48,20.20
2017,07,14,13,49,20.20
2017,07,14,13,51,20.20
2017,07,14,13,52,20.20
2017,07,14,13,53,20.20
2017,07,14,13,54,20.20
2017,07,14,13,56,20.20
2017,07,14,13,57,20.20
2017,07,14,13,58,20.30
2017,07,14,13,59,20.30
2017,07,14,14,01,20.30
2017,07,14,14,02,20.40
2017,07,14,14,03,20.40
2017,07,14,14,04,20.40
2017,07,14,14,06,20.50
2017,07,14,14,07,20.50
2017,07,14,14,08,20.50
2017,07,14,14,09,20.50
2017,07,14,14,11,20.60
2017,07,14,14,12,20.60
2017,07,14,14,13,20.60
2017,07,14,14,14,20.70
2017,07,14,14,15,20.80
2017,07,14,14,16,20.80
2017,07,14,14,17,20.80
2017,07,14,14,18,20.90
2017,07,14,14,19,20.90
2017,07,14,14,21,21.00
2017,07,14,14,22,21.10
2017,07,14,14,23,21.10
2017,07,14,14,24,21.10
2017,07,14,14,26,21.20
2017,07,14,14,27,21.20
2017,07,14,14,28,21.20
2017,07,14,14,29,21.30
2017,07,14,14,30,21.20
2017,07,14,14,31,21.20
2017,07,14,14,32,21.20
2017,07,14,14,33,21.10
2017,07,14,14,34,21.10
2017,07,14,14,36,21.00
2017,07,14,14,37,20.90
2017,07,14,14,38,20.90
2017,07,14,14,39,20.80
2017,07,14,14,40,20.80
2017,07,14,14,41,20.80
2017,07,14,14,42,20.80
2017,07,14,14,43,20.80
2017,07,14,14,44,20.80
2017,07,14,14,45,20.80
2017,07,14,14,46,20.80
2017,07,14,14,47,20.80
2017,07,14,14,48,20.70
2017,07,14,14,49,20.70
2017,07,14,14,50,20.60
2017,07,14,14,51,20.60
2017,07,14,14,52,20.50
2017,07,14,14,53,20.50
2017,07,14,14,54,20.40
2017,07,14,14,55,20.30
2017,07,14,14,56,20.30
2017,07,14,14,57,20.20
2017,07,14,14,58,20.20
2017,07,14,14,59,20.10
2017,07,14,15,00,19.90
2017,07,14,15,01,19.90
2017,07,14,15,02,19.90
2017,07,14,15,03,19.90
2017,07,14,15,04,19.90
2017,07,14,15,05,19.90
2017,07,14,15,06,19.90
2017,07,14,15,07,20.10
2017,07,14,15,08,20.10
2017,07,14,15,09,20.20
2017,07,14,15,10,20.20
2017,07,14,15,11,20.30
2017,07,14,15,12,20.30
2017,07,14,15,13,20.40
2017,07,14,15,14,20.40
2017,07,14,15,15,20.50
2017,07,14,15,16,20.60
2017,07,14,15,17,20.60
2017,07,14,15,18,20.60
2017,07,14,15,19,20.60
2017,07,14,15,20,20.60
2017,07,14,15,21,20.60
2017,07,14,15,22,20.60
2017,07,14,15,23,20.60
2017,07,14,15,24,20.60
2017,07,14,15,25,20.60
2017,07,14,15,26,20.60
2017,07,14,15,27,20.70
2017,07,14,15,28,20.70
2017,07,14,15,29,20.80
2017,07,14,15,30,20.90
2017,07,14,15,31,20.90
2017,07,14,15,32,21.00
2017,07,14,15,33,21.00
2017,07,14,15,34,21.00
2017,07,14,15,35,21.00
2017,07,14,15,36,21.00
2017,07,14,15,37,21.10
2017,07,14,15,38,21.10
2017,07,14,15,39,21.20
2017,07,14,15,40,21.30
2017,07,14,15,41,21.30
2017,07,14,15,42,21.40
2017,07,14,15,44,21.60
2017,07,14,15,46,21.60
2017,07,14,15,47,21.60
2017,07,14,15,48,21.60
2017,07,14,15,49,21.60
2017,07,14,15,51,21.70
2017,07,14,15,52,21.70
2017,07,14,15,53,21.70
2017,07,14,15,54,21.70
2017,07,14,15,56,21.80
2017,07,14,15,57,21.80
2017,07,14,15,58,21.90
2017,07,14,15,59,21.90
2017,07,14,16,01,22.10
2017,07,14,16,02,22.10
2017,07,14,16,03,22.20
2017,07,14,16,04,22.30
2017,07,14,16,06,22.40
2017,07,14,16,07,22.40
2017,07,14,16,08,22.40
2017,07,14,16,09,22.50
2017,07,14,16,11,22.50
2017,07,14,16,12,22.50
2017,07,14,16,13,22.50
2017,07,14,16,14,22.40
2017,07,14,16,16,22.30
2017,07,14,16,17,22.30
2017,07,14,16,18,22.20
2017,07,14,16,19,22.20
2017,07,14,16,21,22.20
2017,07,14,16,22,22.20
2017,07,14,16,23,22.20
2017,07,14,16,24,22.10
2017,07,14,16,26,22.10
2017,07,14,16,27,22.10
2017,07,14,16,28,22.00
2017,07,14,16,29,22.00
2017,07,14,16,31,21.80
2017,07,14,16,32,21.80
2017,07,14,16,33,21.70
2017,07,14,16,34,21.60
2017,07,14,16,36,21.60
2017,07,14,16,37,21.40
2017,07,14,16,38,21.40
2017,07,14,16,39,21.30
2017,07,14,16,41,21.30
2017,07,14,16,42,21.20
2017,07,14,16,43,21.20
2017,07,14,16,44,21.30
2017,07,14,16,46,21.30
2017,07,14,16,47,21.30
2017,07,14,16,48,21.40
2017,07,14,16,49,21.40
2017,07,14,16,51,21.60
2017,07,14,16,52,21.60
2017,07,14,16,53,21.70
2017,07,14,16,54,21.70
2017,07,14,16,56,21.70
2017,07,14,16,57,21.70
2017,07,14,16,58,21.80
2017,07,14,16,59,21.70
2017,07,14,17,01,21.70
2017,07,14,17,02,21.70
2017,07,14,17,03,21.70
2017,07,14,17,04,21.70
2017,07,14,17,06,21.60
2017,07,14,17,07,21.60
2017,07,14,17,08,21.60
2017,07,14,17,09,21.40
2017,07,14,17,11,21.30
2017,07,14,17,12,21.30
2017,07,14,17,13,21.30
2017,07,14,17,14,21.30
2017,07,14,17,15,21.30
2017,07,14,17,16,21.30
2017,07,14,17,17,21.30
2017,07,14,17,18,21.30
2017,07,14,17,19,21.30
2017,07,14,17,20,21.30
2017,07,14,17,21,21.30
2017,07,14,17,22,21.40
2017,07,14,17,23,21.40
2017,07,14,17,24,21.40
2017,07,14,17,25,21.30
2017,07,14,17,26,21.30
2017,07,14,17,27,21.30
2017,07,14,17,28,21.30
2017,07,14,17,29,21.20
2017,07,14,17,30,21.10
2017,07,14,17,31,21.00
2017,07,14,17,32,21.00
2017,07,14,17,33,20.90
2017,07,14,17,34,20.90
2017,07,14,17,35,20.90
2017,07,14,17,36,21.00
2017,07,14,17,37,21.00
2017,07,14,17,38,21.10
2017,07,14,17,39,21.10
2017,07,14,17,40,21.20
2017,07,14,17,41,21.30
2017,07,14,17,42,21.30
2017,07,14,17,43,21.30
2017,07,14,17,44,21.30
2017,07,14,17,45,21.30
2017,07,14,17,46,21.30
2017,07,14,17,47,21.40
2017,07,14,17,48,21.40
2017,07,14,17,49,21.60
2017,07,14,17,50,21.60
2017,07,14,17,51,21.40
2017,07,14,17,52,21.30
2017,07,14,17,53,21.30
2017,07,14,17,54,21.30
2017,07,14,17,55,21.30
2017,07,14,17,56,21.30
2017,07,14,17,57,21.30
2017,07,14,17,58,21.30
2017,07,14,17,59,21.30
2017,07,14,18,00,21.30
2017,07,14,18,01,21.30
2017,07,14,18,02,21.30
2017,07,14,18,03,21.30
2017,07,14,18,04,21.30
2017,07,14,18,05,21.30
2017,07,14,18,06,21.30
2017,07,14,18,07,21.30
2017,07,14,18,08,21.30
2017,07,14,18,09,21.30
2017,07,14,18,10,21.30
2017,07,14,18,11,21.30
2017,07,14,18,12,21.30
2017,07,14,18,13,21.30
2017,07,14,18,14,21.30
2017,07,14,18,15,21.30
2017,07,14,18,16,21.40
2017,07,14,18,17,21.40
2017,07,14,18,18,21.40
2017,07,14,18,19,21.40
2017,07,14,18,20,21.40
2017,07,14,18,21,21.40
2017,07,14,18,22,21.40
2017,07,14,18,23,21.60
2017,07,14,18,24,21.60
2017,07,14,18,25,21.60
2017,07,14,18,26,21.60
2017,07,14,18,27,21.60
2017,07,14,18,28,21.60
2017,07,14,18,29,21.60
2017,07,14,18,30,21.60
2017,07,14,18,32,21.30
2017,07,14,18,33,21.30
2017,07,14,18,34,21.30
2017,07,14,18,36,21.20
2017,07,14,18,37,21.10
2017,07,14,18,38,21.10
2017,07,14,18,39,21.00
2017,07,14,18,41,20.90
2017,07,14,18,42,20.90
2017,07,14,18,43,20.80
2017,07,14,18,44,20.70
2017,07,14,18,46,20.60
2017,07,14,18,47,20.60
2017,07,14,18,48,20.50
2017,07,14,18,49,20.50
2017,07,14,18,51,20.50
2017,07,14,18,52,20.40
2017,07,14,18,53,20.30
2017,07,14,18,54,20.30
2017,07,14,18,56,20.20
2017,07,14,18,57,20.20
2017,07,14,18,58,20.10
2017,07,14,18,59,19.90
2017,07,14,19,01,19.90
2017,07,14,19,02,19.90
2017,07,14,19,03,19.90
2017,07,14,19,04,19.90
2017,07,14,19,06,19.90
2017,07,14,19,07,19.90
2017,07,14,19,08,19.90
2017,07,14,19,09,19.80
2017,07,14,19,11,19.80
2017,07,14,19,12,19.80
2017,07,14,19,13,19.70
2017,07,14,19,14,19.70
2017,07,14,19,16,19.60
2017,07,14,19,17,19.60
2017,07,14,19,18,19.50
2017,07,14,19,19,19.50
2017,07,14,19,21,19.40
2017,07,14,19,22,19.30
2017,07,14,19,23,19.30
2017,07,14,19,24,19.20
2017,07,14,19,26,19.20
2017,07,14,19,27,19.10
2017,07,14,19,28,19.10
2017,07,14,19,29,19.10
2017,07,14,19,31,19.10
2017,07,14,19,32,19.10
2017,07,14,19,33,18.90
2017,07,14,19,34,18.90
2017,07,14,19,36,18.80
2017,07,14,19,37,18.70
2017,07,14,19,38,18.70
2017,07,14,19,39,18.60
2017,07,14,19,41,18.50
2017,07,14,19,42,18.50
2017,07,14,19,43,18.40
2017,07,14,19,44,18.30
2017,07,14,19,46,18.30
2017,07,14,19,47,18.30
2017,07,14,19,48,18.30